Weather Roundup
Issued by NWS Chicago, IL

Home | Current Version | Previous Version | Graphics & Text | Print | Product List | Glossary On
Versions: 1 2 3 4 5 6 7 8 9 10 11 12 13 14 15 16 17 18 19 20 21 22 23 24 25 26 27 28 29 30 31 32 33 34 35 36 37 38 39 40 41 42 43 44 45 46 47 48 49 50
000
NZUS59 KLOT 250909
HRRLOT

CHICAGO AREA WEATHER ROUNDUP
NATIONAL WEATHER SERVICE CHICAGO/ROMEOVILLE IL
400 AM CDT SUN JUN 25 2017

NOTE: "FAIR" INDICATES FEW OR NO CLOUDS BELOW 12,000 FEET WITH NO
SIGNIFICANT WEATHER AND/OR OBSTRUCTIONS TO VISIBILITY.

* THESE STATIONS ARE NOT UNDER NWS QUALITY CONTROL. THEY ALSO MAY NOT
  REPORT WEATHER SUCH AS PRECIPITATION OR FOG.

ILZ005-006-012>014-019>023-251000-
NORTHEAST ILLINOIS

CITY           SKY/WX    TMP DP  RH WIND       PRES   REMARKS
OHARE          PTCLDY    56  47  71 W8        30.04F
MIDWAY         CLEAR     58  47  66 W8        30.05S
AURORA         CLEAR     51  48  89 W6        30.08S
LANSING*       CLEAR     58  44  59 NW7       30.07R
JOLIET*        CLEAR     56  51  83 W3        30.08S
WAUKEGAN       CLEAR     53  49  86 VRB7      30.03S
DUPAGE AIRPORT CLEAR     53  49  86 W6        30.05F
WHEELING       CLEAR     55  50  83 W6        30.06S
MORRIS*        CLEAR     52  48  86 W6        30.07S
LEWIS AIRPORT* CLEAR     54  46  74 W7        30.07S
NORTHERLY ISL    N/A     59  45  59 W6          N/A
$$

WIZ051-052-058>065-066-070>072-251000-
SOUTHEAST WISCONSIN

CITY           SKY/WX    TMP DP  RH WIND       PRES   REMARKS
MILWAUKEE      CLEAR     54  49  83 W6        30.02S
KENOSHA*       PTCLDY    50  46  86 W8        30.03S
RACINE*        CLEAR     53  48  83 VRB7      30.03F
WAUKESHA       CLEAR     48  46  93 W7        30.03S
WEST BEND      CLEAR     50  46  87 W8        30.00F
$$

INZ001>003-010>013-019-020-251000-
NORTHWEST INDIANA

CITY           SKY/WX    TMP DP  RH WIND       PRES   REMARKS
GARY*          CLEAR     60  43  53 W10       30.07R
MICHIGAN CITY* NOT AVBL
RENSSELAER*    NOT AVBL
VALPARAISO     MOCLDY    59  49  69 W9        30.05S
$$

LMZ740>746-251000-
SOUTHERN LAKE MICHIGAN

STATION/POSITION TIME  SKY/WX   TEMP WIND        PRES    VSBY
                                AIR  DIR/SP/G
                 (UTC)          (F)  (DEG/KT/KT) (MB)    (MI)
HARRISON CRIB    0840            60  280/ 13/ 14   N/A
BURNHAM HARBOR   0900            59                N/A
CALUMET HARBOR   0848            59  280/  4/  7 1017.3R
BURNS HARBOR     0840            63  290/ 19/ 23 1017.6S
MICHIGAN CITY    0840            61  270/ 22/ 24   N/A
$$

ABBREVIATIONS USED IN REMARKS
   TC - TEMPERATURE IN CELSIUS
  WCI - WIND CHILL INDEX
   HX - HEAT INDEX
  VSB - VISIBILITY
$$



USA.gov is the U.S. government's official web portal to all federal, state and local government web resources and services.